This is the latest recevied weather packets stored in our database for station/object KI5RAB. If no packets are shown the sender has not sent any weather packets the latest 10 day(s).
| Time | Temp. | Humidity | Pressure | Rain* | Wind** | Luminosity | Snow |
|---|---|---|---|---|---|---|---|
| 1788384206 | 39.44° C | 38% | 1014.9 hPa | 0 mm | - | 460 W/m² | - |
| 1788383902 | 38.33° C | 39% | 1015.1 hPa | 0 mm | - | 476 W/m² | - |
| 1788383596 | 38.33° C | 37% | 1015.2 hPa | 0 mm | - | 490 W/m² | - |
| 1788383292 | 38.89° C | 40% | 1015.2 hPa | 0 mm | - | 493 W/m² | - |
| 1788382986 | 38.33° C | 39% | 1015.2 hPa | 0 mm | - | 515 W/m² | - |
| 1788382684 | 38.89° C | 39% | 1015.5 hPa | 0 mm | - | 523 W/m² | - |
| 1788382379 | 38.89° C | 41% | 1015.6 hPa | 0 mm | - | 537 W/m² | - |
| 1788382075 | 37.78° C | 40% | 1015.4 hPa | 0 mm | - | 547 W/m² | - |
| 1788381770 | 38.89° C | 39% | 1015.6 hPa | 0 mm | - | 561 W/m² | - |
| 1788381464 | 37.78° C | 40% | 1015.5 hPa | 0 mm | - | 577 W/m² | - |
| 1788381159 | 38.33° C | 39% | 1016 hPa | 0 mm | - | 581 W/m² | - |
| 1788380854 | 37.22° C | 42% | 1015.8 hPa | 0 mm | - | 591 W/m² | - |
| 1788380551 | 37.22° C | 41% | 1015.9 hPa | 0 mm | - | 603 W/m² | - |
| 1788380247 | 37.22° C | 42% | 1016 hPa | 0 mm | - | 616 W/m² | - |
| 1788379946 | 37.78° C | 39% | 1016.2 hPa | 0 mm | - | 626 W/m² | - |
| 1788379641 | 37.78° C | 40% | 1016.2 hPa | 0 mm | - | 631 W/m² | - |
| 1788379336 | 37.78° C | 41% | 1016.3 hPa | 0 mm | - | 641 W/m² | - |
| 1788379032 | 37.78° C | 42% | 1016.6 hPa | 0 mm | - | 646 W/m² | - |
| 1788378731 | 37.22° C | 43% | 1016.6 hPa | 0 mm | - | 649 W/m² | - |
| 1788378425 | 37.22° C | 45% | 1016.7 hPa | 0 mm | - | 664 W/m² | - |
| 1788378120 | 37.22° C | 41% | 1016.6 hPa | 0 mm | - | 669 W/m² | - |
| 1788377815 | 36.67° C | 42% | 1016.9 hPa | 0 mm | - | 676 W/m² | - |
| 1788377510 | 36.67° C | 44% | 1017 hPa | 0 mm | - | 686 W/m² | - |
| 1788377208 | 37.22° C | 43% | 1017.1 hPa | 0 mm | - | 681 W/m² | - |
| 1788376903 | 37.78° C | 44% | 1017.1 hPa | 0 mm | - | 684 W/m² | - |
* Rain latest hour (hover to see other rain measurements)
** Current wind speed in m/s (hover to see current wind gust speed)